This is the latest recevied weather packets stored in our database for station/object W4KAB. If no packets are shown the sender has not sent any weather packets the latest 10 day(s).
| Time | Temp. | Humidity | Pressure | Rain* | Wind** | Luminosity | Snow |
|---|---|---|---|---|---|---|---|
| 1778010416 | 25.56° C | 39% | 1015.6 hPa | 0 mm | - | 461 W/m² | - |
| 1778010112 | 26.11° C | 38% | 1015.4 hPa | 0 mm | - | 413 W/m² | - |
| 1778009808 | 26.11° C | 38% | 1015.5 hPa | 0 mm | - | 494 W/m² | - |
| 1778009505 | 26.11° C | 37% | 1015.4 hPa | 0 mm | - | 578 W/m² | - |
| 1778009204 | 26.11° C | 40% | 1015.5 hPa | 0 mm | - | 566 W/m² | - |
| 1778008901 | 25.56° C | 39% | 1015.9 hPa | 0 mm | - | 609 W/m² | - |
| 1778008599 | 25.56° C | 39% | 1015.8 hPa | 0 mm | - | 567 W/m² | - |
| 1778008297 | 26.11° C | 38% | 1015.8 hPa | 0 mm | - | 457 W/m² | - |
| 1778007993 | 26.11° C | 38% | 1015.9 hPa | 0 mm | - | 618 W/m² | - |
| 1778007688 | 25.56° C | 39% | 1015.8 hPa | 0 mm | - | 596 W/m² | - |
| 1778007385 | 25° C | 39% | 1016 hPa | 0 mm | - | 676 W/m² | - |
| 1778007081 | 25.56° C | 38% | 1016.2 hPa | 0 mm | - | 352 W/m² | - |
| 1778006778 | 26.11° C | 37% | 1016.2 hPa | 0 mm | - | 750 W/m² | - |
| 1778006474 | 26.11° C | 39% | 1016.2 hPa | 0 mm | - | 747 W/m² | - |
| 1778006171 | 26.11° C | 40% | 1016.4 hPa | 0 mm | - | 463 W/m² | - |
| 1778005869 | 25.56° C | 39% | 1016.4 hPa | 0 mm | - | 739 W/m² | - |
| 1778005565 | 25° C | 41% | 1016.4 hPa | 0 mm | - | 594 W/m² | - |
| 1778005262 | 25.56° C | 39% | 1016.7 hPa | 0 mm | - | 636 W/m² | - |
| 1778004959 | 25.56° C | 39% | 1016.8 hPa | 0 mm | - | 588 W/m² | - |
| 1778004656 | 25.56° C | 37% | 1016.9 hPa | 0 mm | - | 635 W/m² | - |
| 1778004351 | 25.56° C | 36% | 1016.9 hPa | 0 mm | - | 646 W/m² | - |
| 1778004050 | 25.56° C | 38% | 1017 hPa | 0 mm | - | 658 W/m² | - |
| 1778003750 | 25.56° C | 37% | 1016.8 hPa | 0 mm | - | 790 W/m² | - |
| 1778003447 | 25.56° C | 39% | 1016.9 hPa | 0 mm | - | 532 W/m² | - |
| 1778003144 | 25° C | 40% | 1017 hPa | 0 mm | - | 550 W/m² | - |
* Rain latest hour (hover to see other rain measurements)
** Current wind speed in m/s (hover to see current wind gust speed)